When you browse on this site, cookies collect data to enhance your experience and personalize the content and advertising you see.
Visit our Privacy Policy to learn more. By continuing to use the site, you agree to this use of cookies and data.
  • In United Kingdom
  • List of Countries
  • For 7 days
  • Water Temperature
  • Weather Map
  • Weather Widgets
  • user-avatar
    Login

    Hourly Weather Calarasi

    Today, 26 January, Sunday

    Time Temperature Precipitation Wind Pressure Humidity
    00:00 +4°C° 0 mm 2 mps 765 mmHg 64%
    01:00 +3°C° 0 mm 2 mps 765 mmHg 65%
    02:00 +3°C° 0 mm 2 mps 765 mmHg 66%
    03:00 +4°C° 0 mm 1 mps 765 mmHg 68%
    04:00 +4°C° 0 mm 1 mps 765 mmHg 69%
    05:00 +3°C° 0 mm 1 mps 765 mmHg 71%
    06:00 +3°C° 0 mm 1 mps 765 mmHg 71%
    07:00 +3°C° 0 mm 1 mps 766 mmHg 71%
    08:00 +1°C° 0 mm 0 mps 766 mmHg 71%
    09:00 +4°C° 0 mm 1 mps 766 mmHg 64%
    10:00 +5°C° 0 mm 1 mps 767 mmHg 58%
    11:00 +7°C° 0 mm 1 mps 767 mmHg 51%
    12:00 +8°C° 0 mm 1 mps 766 mmHg 49%
    13:00 +9°C° 0 mm 1 mps 766 mmHg 46%
    14:00 +9°C° 0 mm 2 mps 766 mmHg 43%
    15:00 +8°C° 0 mm 2 mps 766 mmHg 45%
    16:00 +8°C° 0 mm 2 mps 766 mmHg 47%
    17:00 +7°C° 0 mm 2 mps 766 mmHg 50%
    18:00 +7°C° 0 mm 2 mps 766 mmHg 54%
    19:00 +6°C° 0 mm 2 mps 765 mmHg 58%
    20:00 +5°C° 0 mm 2 mps 765 mmHg 63%
    21:00 +5°C° 0 mm 2 mps 765 mmHg 67%
    22:00 +5°C° 0 mm 2 mps 765 mmHg 71%
    23:00 +5°C° 0 mm 2 mps 765 mmHg 76%

    Tomorrow, 27 January, Monday

    Time Temperature Precipitation Wind Pressure Humidity
    00:00 +5°C° 0 mm 2 mps 764 mmHg 77%
    01:00 +4°C° 0 mm 2 mps 764 mmHg 79%
    02:00 +4°C° 0 mm 2 mps 764 mmHg 80%
    03:00 +4°C° 0 mm 2 mps 764 mmHg 81%
    04:00 +4°C° 0 mm 2 mps 763 mmHg 83%
    05:00 +4°C° 0 mm 2 mps 763 mmHg 85%
    06:00 +4°C° 0 mm 2 mps 763 mmHg 86%
    07:00 +4°C° 0 mm 2 mps 763 mmHg 88%
    08:00 +4°C° 0 mm 2 mps 762 mmHg 90%
    09:00 +6°C° 0 mm 2 mps 762 mmHg 87%
    10:00 +7°C° 0 mm 2 mps 762 mmHg 84%
    11:00 +9°C° 0 mm 2 mps 762 mmHg 80%
    12:00 +9°C° 0 mm 2 mps 761 mmHg 80%
    13:00 +10°C° 0 mm 2 mps 761 mmHg 80%
    14:00 +10°C° 0 mm 2 mps 760 mmHg 80%
    15:00 +10°C° 0 mm 2 mps 760 mmHg 81%
    16:00 +9°C° 0 mm 2 mps 759 mmHg 82%
    17:00 +10°C° 0 mm 1 mps 759 mmHg 83%
    18:00 +8°C° 0.7 mm 2 mps 759 mmHg 85%
    19:00 +7°C° 0.7 mm 3 mps 759 mmHg 87%
    20:00 +7°C° 0.7 mm 3 mps 759 mmHg 88%
    21:00 +7°C° 1.5 mm 3 mps 759 mmHg 90%
    22:00 +5°C° 1.5 mm 4 mps 759 mmHg 91%
    23:00 +5°C° 1.5 mm 4 mps 758 mmHg 92%

    Day after tomorrow, 28 January, Tuesday

    Time Temperature Precipitation Wind Pressure Humidity
    00:00 +5°C° 0.6 mm 4 mps 758 mmHg 91%
    01:00 +5°C° 0.6 mm 5 mps 757 mmHg 90%
    02:00 +5°C° 0.6 mm 5 mps 757 mmHg 90%
    03:00 +3°C° 0.2 mm 5 mps 757 mmHg 89%
    04:00 +3°C° 0.2 mm 5 mps 757 mmHg 89%
    05:00 +3°C° 0.2 mm 5 mps 757 mmHg 89%
    06:00 +3°C° 0.1 mm 5 mps 757 mmHg 89%
    07:00 +3°C° 0.1 mm 5 mps 757 mmHg 89%
    08:00 +3°C° 0.1 mm 5 mps 757 mmHg 89%
    09:00 +5°C° 0 mm 5 mps 757 mmHg 85%
    10:00 +6°C° 0 mm 5 mps 757 mmHg 80%
    11:00 +7°C° 0 mm 5 mps 758 mmHg 76%
    12:00 +8°C° 0 mm 5 mps 757 mmHg 71%
    13:00 +9°C° 0 mm 5 mps 757 mmHg 66%
    14:00 +10°C° 0 mm 5 mps 756 mmHg 61%
    15:00 +10°C° 0 mm 4 mps 756 mmHg 63%
    16:00 +10°C° 0 mm 3 mps 756 mmHg 65%
    17:00 +9°C° 0 mm 3 mps 756 mmHg 67%
    18:00 +8°C° 0 mm 3 mps 756 mmHg 69%
    19:00 +8°C° 0 mm 3 mps 756 mmHg 70%
    20:00 +7°C° 0 mm 3 mps 756 mmHg 72%
    21:00 +7°C° 0 mm 3 mps 756 mmHg 72%
    22:00 +7°C° 0 mm 3 mps 755 mmHg 73%
    23:00 +5°C° 0 mm 3 mps 755 mmHg 73%

    29 January, Wednesday

    Time Temperature Precipitation Wind Pressure Humidity
    00:00 +5°C° 0 mm 3 mps 754 mmHg 73%
    01:00 +5°C° 0 mm 3 mps 754 mmHg 73%
    02:00 +7°C° 0 mm 3 mps 753 mmHg 73%
    03:00 +5°C° 0 mm 3 mps 753 mmHg 73%
    04:00 +5°C° 0 mm 3 mps 752 mmHg 73%
    05:00 +6°C° 0 mm 2 mps 751 mmHg 73%
    06:00 +7°C° 0 mm 3 mps 751 mmHg 73%
    07:00 +7°C° 0 mm 3 mps 751 mmHg 73%
    08:00 +7°C° 0 mm 3 mps 750 mmHg 73%
    09:00 +6°C° 0.4 mm 4 mps 751 mmHg 73%
    10:00 +6°C° 0.4 mm 5 mps 751 mmHg 73%
    11:00 +7°C° 0.4 mm 6 mps 751 mmHg 74%
    12:00 +6°C° 0 mm 8 mps 751 mmHg 61%
    13:00 +7°C° 0 mm 10 mps 751 mmHg 49%
    14:00 +8°C° 0 mm 12 mps 751 mmHg 36%
    15:00 +8°C° 0 mm 11 mps 752 mmHg 37%
    16:00 +7°C° 0 mm 9 mps 753 mmHg 37%
    17:00 +6°C° 0 mm 8 mps 754 mmHg 38%
    18:00 +5°C° 0 mm 7 mps 754 mmHg 43%
    19:00 +5°C° 0 mm 7 mps 755 mmHg 48%
    20:00 +4°C° 0 mm 6 mps 755 mmHg 53%
    21:00 +4°C° 0 mm 6 mps 755 mmHg 54%
    22:00 +3°C° 0 mm 5 mps 755 mmHg 55%
    23:00 +4°C° 0 mm 4 mps 756 mmHg 56%

    30 January, Thursday

    Time Temperature Precipitation Wind Pressure Humidity
    00:00 +3°C° 0 mm 3 mps 755 mmHg 54%
    01:00 +3°C° 0 mm 3 mps 755 mmHg 53%
    02:00 +3°C° 0 mm 3 mps 755 mmHg 51%
    03:00 +3°C° 0 mm 4 mps 755 mmHg 53%
    04:00 +2°C° 0 mm 5 mps 754 mmHg 55%
    05:00 +2°C° 0 mm 6 mps 754 mmHg 57%
    06:00 +2°C° 0 mm 6 mps 755 mmHg 63%
    07:00 +2°C° 0 mm 6 mps 755 mmHg 69%
    08:00 +1°C° 0 mm 6 mps 756 mmHg 74%
    09:00 +2°C° 0 mm 6 mps 756 mmHg 67%
    10:00 +3°C° 0 mm 7 mps 756 mmHg 60%
    11:00 +4°C° 0 mm 7 mps 757 mmHg 53%
    12:00 +5°C° 0 mm 7 mps 757 mmHg 50%
    13:00 +6°C° 0 mm 7 mps 757 mmHg 47%
    14:00 +6°C° 0 mm 7 mps 757 mmHg 44%
    15:00 +7°C° 0 mm 6 mps 757 mmHg 45%
    16:00 +6°C° 0 mm 5 mps 757 mmHg 46%
    17:00 +6°C° 0 mm 4 mps 757 mmHg 47%
    18:00 +5°C° 0 mm 3 mps 758 mmHg 50%
    19:00 +4°C° 0 mm 3 mps 758 mmHg 53%
    20:00 +3°C° 0 mm 3 mps 758 mmHg 56%
    21:00 +3°C° 0 mm 3 mps 759 mmHg 57%
    22:00 +2°C° 0 mm 3 mps 759 mmHg 59%
    23:00 +2°C° 0 mm 3 mps 760 mmHg 60%

    31 January, Friday

    Time Temperature Precipitation Wind Pressure Humidity
    00:00 +2°C° 0 mm 3 mps 760 mmHg 63%
    01:00 +1°C° 0 mm 3 mps 761 mmHg 65%
    02:00 +1°C° 0 mm 3 mps 761 mmHg 67%
    03:00 0°C° 0 mm 3 mps 761 mmHg 69%
    04:00 0°C° 0 mm 3 mps 761 mmHg 72%
    05:00 -1°C° 0 mm 3 mps 762 mmHg 74%
    06:00 -1°C° 0 mm 3 mps 762 mmHg 76%
    07:00 -1°C° 0 mm 3 mps 762 mmHg 77%
    08:00 -2°C° 0 mm 4 mps 762 mmHg 78%
    09:00 -1°C° 0 mm 4 mps 763 mmHg 72%
    10:00 +1°C° 0 mm 4 mps 763 mmHg 66%
    11:00 +3°C° 0 mm 4 mps 763 mmHg 59%
    12:00 +4°C° 0 mm 4 mps 763 mmHg 54%
    13:00 +5°C° 0 mm 4 mps 762 mmHg 49%
    14:00 +6°C° 0 mm 4 mps 762 mmHg 43%
    15:00 +7°C° 0 mm 3 mps 762 mmHg 46%
    16:00 +5°C° 0 mm 3 mps 762 mmHg 49%
    17:00 +5°C° 0 mm 3 mps 762 mmHg 52%
    18:00 +5°C° 0 mm 2 mps 762 mmHg 56%
    19:00 +4°C° 0 mm 2 mps 762 mmHg 60%
    20:00 +4°C° 0 mm 2 mps 762 mmHg 63%
    21:00 +3°C° 0 mm 2 mps 762 mmHg 64%
    22:00 +3°C° 0 mm 2 mps 762 mmHg 65%
    23:00 +3°C° 0 mm 2 mps 762 mmHg 65%
    Show more